Home > Weather > Playa del Carmen > Past weeks

Flag for Mexico Weather for the Past 2 Weeks in Playa del Carmen, Quintana Roo, Mexico

Now
82 °F

Partly sunny.


Feels Like: 89 °F
Forecast: N/A
Wind: 16 mph from Southeast

Location: Cozumel Civ / Mil

Current Time: Apr 28, 2016 at 6:03:50 PM

Latest Report: Apr 28, 2016 at 4:49 PM


Visibility: 8 mi

Pressure: 29.85 "Hg

Humidity: 79%

Dew Point: 75 °F

Location of Playa del CarmenLocation

Historic Weather in Playa del Carmen — Graph

°F

Playa del Carmen Temperature Yesterday

Maximum temperature yesterday: 84 °F (at 10:49 AM)
Minimum temperature yesterday: 72 °F (at 12:53 AM)
Average temperature yesterday: 78 °F

High & Low Weather Summary for the Past Weeks

 TemperatureHumidityPressure
High86 °F (Apr 28, 1:41 PM)100% (Apr 13, 11:40 PM)30.09 "Hg (Apr 13, 11:40 PM)
Low64 °F (Apr 22, 6:47 AM)58% (Apr 14, 4:51 PM)29.77 "Hg (Apr 27, 5:01 PM)
Average75 °F86%29.92 "Hg
* Reported Apr 13 3:49 PM — Apr 28 2:47 PM, Playa del Carmen, Weather by CustomWeather, © 2016

Note: Actual official high and low records may vary slightly from our data, if they occured in-between our weather recording intervals... More about our weather records

Advertising

Playa del Carmen Weather History for the Previous 24 Hours

Scroll right to see more
 ConditionsComfort  
Time TempWeatherWind HumidityBarometerVisibility
2:47 PM
Thu, Apr 28
86 °FPartly sunny.12 mph70%29.87 "Hg8 mi
1:41 PM86 °FPartly sunny.18 mph70%29.88 "Hg8 mi
12:48 PM84 °FPartly sunny.10 mph70%29.89 "Hg8 mi
11:41 AM84 °FPartly sunny.21 mph74%29.92 "Hg8 mi
10:45 AM82 °FPartly sunny.12 mph79%29.93 "Hg8 mi
9:40 AM81 °FBroken clouds.13 mph84%29.94 "Hg8 mi
8:46 AM79 °FBroken clouds.14 mph89%29.91 "Hg8 mi
7:41 AM75 °FScattered clouds.12 mph100%29.89 "Hg8 mi
4:01 AM73 °FPassing clouds.6 mph100%29.85 "Hg7 mi
2:42 AM75 °FPassing clouds.8 mph94%29.83 "Hg7 mi
1:53 AM75 °FPassing clouds.8 mph94%29.84 "Hg7 mi
12:45 AM75 °FPassing clouds.7 mph94%29.83 "Hg7 mi
11:40 PM
Wed, Apr 27
75 °FPassing clouds.7 mph94%29.86 "Hg7 mi
10:41 PM75 °FPassing clouds.6 mph94%29.86 "Hg7 mi
9:42 PM75 °FPassing clouds.5 mph94%29.88 "Hg7 mi
8:55 PM75 °FPassing clouds.3 mph100%29.83 "Hg7 mi
7:51 PM77 °FScattered clouds.6 mph94%29.81 "Hg7 mi
6:49 PM79 °FBroken clouds.10 mph89%29.77 "Hg7 mi
Weather by CustomWeather, © 2016

See weather overviewHow to use our weather pages